Weather History for KGZH - April, 2013

Change the Weather History Date:

Monday, April 8, 2013

  Actual Average (KPRN) Record (KPRN)
Temperature  
Mean Temperature 69 °F -  
Max Temperature 82 °F 77 °F 90 °F (1967)
Min Temperature 57 °F 50 °F 32 °F (2009)
Cooling Degree Days 4    
Growing Degree Days 19 (Base 50)    
Moisture  
Dew Point 58 °F    
Average Humidity 78    
Maximum Humidity 96    
Minimum Humidity 43    
Precipitation  
Precipitation 0.00 in - - ()
Sea Level Pressure  
Sea Level Pressure 30.07 in    
Wind  
Wind Speed 4 mph (South)    
Max Wind Speed 15 mph    
Max Gust Speed 21 mph    
Visibility 7 miles    
Events Fog    
Averages and records for this station are not official NWS values.
T = Trace of Precipitation, MM = Missing Value Source: NWS Daily Summary

Daily Weather History Graph

Daily Weather History Graph

Search for Another Location

Airport or City:

Trip Planner

Search our weather history database for the weather conditions in past years. The results will help you decide how hot, cold, wet, or windy it might be!

Date:

Astronomy

Apr. 08, 2013 Rise Set
Actual Time 6:27 AM CDT 7:12 PM CDT
Civil Twilight 6:03 AM CDT 7:37 PM CDT
Nautical Twilight 5:34 AM CDT 8:06 PM CDT
Astronomical Twilight 5:04 AM CDT 8:35 PM CDT
Moon 5:12 AM CDT (4/8) 5:49 PM CDT (4/8)
Length of Visible Light 13h 33m
Length of Day
12h 44m
Waning Crescent, 3% of the Moon is Illuminated
Apr 8
Waning Crescent
Apr 10
New
Apr 18
First Quarter
Apr 25
Full
May 2
Last Quarter

Hourly Weather History & Observations

Time (CDT) Temp. Heat Index Dew Point Humidity Pressure Visibility Wind Dir Wind Speed Gust Speed Precip Events Conditions
12:00 AM 62.6 °F - 59.0 °F 88% 30.08 in 10.0 mi South 4.6 mph - N/A   Mostly Cloudy
12:12 AM 62.6 °F - 60.8 °F 94% 30.08 in 9.0 mi South 6.9 mph - N/A   Overcast
12:53 AM 63.0 °F - 60.1 °F 90% 30.06 in 9.0 mi SSE 6.9 mph - N/A   Overcast
1:28 AM 62.6 °F - 60.8 °F 94% 30.07 in 6.0 mi Calm Calm - N/A   Overcast
1:44 AM 62.6 °F - 60.8 °F 94% 30.07 in 7.0 mi Calm Calm - N/A   Overcast
1:53 AM 62.1 °F - 60.1 °F 93% 30.05 in 7.0 mi Calm Calm - N/A   Overcast
2:11 AM 62.6 °F - 60.8 °F 94% 30.06 in 2.5 mi Calm Calm - N/A   Overcast
2:14 AM 62.6 °F - 60.8 °F 94% 30.06 in 1.5 mi Calm Calm - N/A   Overcast
2:18 AM 62.6 °F - 60.8 °F 94% 30.06 in 0.8 mi Calm Calm - N/A   Overcast
2:53 AM 61.0 °F - 59.0 °F 93% 30.04 in 0.2 mi Calm Calm - N/A Fog Fog
3:53 AM 60.1 °F - 57.9 °F 93% 30.04 in 0.2 mi Calm Calm - N/A Fog Fog
4:53 AM 59.0 °F - 57.0 °F 93% 30.04 in 0.2 mi Calm Calm - N/A Fog Fog
5:53 AM 57.9 °F - 55.0 °F 90% 30.05 in 0.5 mi Calm Calm - N/A Fog Fog
6:09 AM 57.2 °F - 55.4 °F 94% 30.06 in 0.5 mi Calm Calm - N/A Fog Fog
6:19 AM 57.2 °F - 55.4 °F 94% 30.06 in 1.0 mi SE 4.6 mph - N/A   Mist
6:23 AM 57.2 °F - 55.4 °F 94% 30.06 in 3.0 mi SE 3.5 mph - N/A   Scattered Clouds
6:53 AM 57.0 °F - 55.9 °F 96% 30.07 in 8.0 mi Calm Calm - N/A   Partly Cloudy
7:53 AM 60.1 °F - 57.9 °F 93% 30.09 in 9.0 mi Variable 3.5 mph - N/A   Overcast
8:53 AM 64.0 °F - 60.1 °F 87% 30.10 in 10.0 mi ESE 4.6 mph - N/A   Overcast
9:53 AM 68.0 °F - 61.0 °F 78% 30.11 in 10.0 mi SE 9.2 mph - N/A   Overcast
10:53 AM 75.9 °F - 60.1 °F 58% 30.11 in 10.0 mi South 8.1 mph - N/A   Partly Cloudy
11:53 AM 79.0 °F - 57.9 °F 48% 30.11 in 10.0 mi SSE 9.2 mph - N/A   Mostly Cloudy
12:53 PM 79.0 °F - 57.0 °F 47% 30.09 in 10.0 mi South 15.0 mph 20.7 mph N/A   Mostly Cloudy
1:53 PM 80.1 °F 80.2 °F 55.9 °F 43% 30.07 in 10.0 mi SSW 12.7 mph 19.6 mph N/A   Overcast
2:53 PM 80.1 °F 80.2 °F 55.9 °F 43% 30.06 in 10.0 mi South 12.7 mph 17.3 mph N/A   Mostly Cloudy
3:53 PM 81.0 °F 81.1 °F 57.9 °F 45% 30.04 in 10.0 mi South 9.2 mph 19.6 mph N/A   Mostly Cloudy
4:53 PM 79.0 °F - 55.9 °F 45% 30.04 in 10.0 mi South 9.2 mph - N/A   Mostly Cloudy
5:53 PM 77.0 °F - 55.9 °F 48% 30.05 in 10.0 mi South 9.2 mph - N/A   Overcast
6:53 PM 75.9 °F - 55.9 °F 50% 30.05 in 10.0 mi SSE 10.4 mph - N/A   Mostly Cloudy
7:53 PM 69.1 °F - 55.9 °F 63% 30.07 in 10.0 mi South 3.5 mph - N/A   Clear
8:53 PM 66.9 °F - 55.9 °F 68% 30.09 in 10.0 mi South 3.5 mph - N/A   Clear
9:53 PM 63.0 °F - 55.9 °F 78% 30.09 in 10.0 mi Calm Calm - N/A   Clear
10:53 PM 62.1 °F - 57.0 °F 84% 30.09 in 10.0 mi Calm Calm - N/A   Clear
11:53 PM 63.0 °F - 57.9 °F 84% 30.08 in 10.0 mi South 3.5 mph - N/A   Clear